Time,TemperatureF,DewpointF,PressureIn,WindDirection,WindDirectionDegrees,WindSpeedMPH,WindSpeedGustMPH,Humidity,HourlyPrecipIn,Conditions,Clouds,dailyrainin,SoftwareType,DateUTC
2013-01-28 00:08:00,44.6,31.6,30.42,ESE,107,0.0,0.0,60,0.00,,,0.00,Wunderground v.1.15,2013-01-28 05:08:00,
2013-01-28 00:13:00,44.5,31.5,30.43,ESE,107,0.0,0.0,60,0.00,,,0.00,Wunderground v.1.15,2013-01-28 05:13:00,
2013-01-28 00:19:00,44.4,31.4,30.43,ESE,107,0.0,0.0,60,0.00,,,0.00,Wunderground v.1.15,2013-01-28 05:19:00,
2013-01-28 00:24:00,44.3,31.7,30.43,ESE,107,0.0,0.0,61,0.00,,,0.00,Wunderground v.1.15,2013-01-28 05:24:00,
2013-01-28 00:30:00,44.2,31.6,30.42,ESE,107,0.0,0.0,61,0.00,,,0.00,Wunderground v.1.15,2013-01-28 05:30:00,
2013-01-28 00:35:00,44.2,31.6,30.42,ESE,107,0.0,0.0,61,0.00,,,0.00,Wunderground v.1.15,2013-01-28 05:35:00,
2013-01-28 00:40:00,44.2,31.6,30.42,ESE,107,0.0,0.0,61,0.00,,,0.00,Wunderground v.1.15,2013-01-28 05:40:00,
2013-01-28 00:46:00,44.1,31.5,30.41,ESE,107,0.0,0.0,61,0.00,,,0.00,Wunderground v.1.15,2013-01-28 05:46:00,
2013-01-28 00:51:00,44.0,31.4,30.41,ESE,107,0.0,0.0,61,0.00,,,0.00,Wunderground v.1.15,2013-01-28 05:51:00,
2013-01-28 00:57:00,43.8,31.2,30.40,ESE,107,0.0,0.0,61,0.00,,,0.00,Wunderground v.1.15,2013-01-28 05:57:00,
2013-01-28 01:03:00,43.7,31.5,30.40,ESE,107,0.0,0.0,62,0.00,,,0.00,Wunderground v.1.15,2013-01-28 06:03:00,
2013-01-28 01:08:00,43.6,31.4,30.40,ESE,107,0.0,0.0,62,0.00,,,0.00,Wunderground v.1.15,2013-01-28 06:08:00,
2013-01-28 01:13:00,43.5,31.3,30.40,ESE,108,0.0,0.0,62,0.00,,,0.00,Wunderground v.1.15,2013-01-28 06:13:00,
2013-01-28 01:19:00,43.3,31.1,30.40,ESE,108,0.0,0.0,62,0.00,,,0.00,Wunderground v.1.15,2013-01-28 06:19:00,
2013-01-28 01:25:00,43.2,31.4,30.40,ESE,108,0.0,0.0,63,0.00,,,0.00,Wunderground v.1.15,2013-01-28 06:25:00,
2013-01-28 01:30:00,43.1,31.4,30.40,ESE,108,0.0,0.0,63,0.00,,,0.00,Wunderground v.1.15,2013-01-28 06:30:00,
2013-01-28 01:35:00,43.0,31.3,30.40,ESE,108,0.0,0.0,63,0.00,,,0.00,Wunderground v.1.15,2013-01-28 06:35:00,
2013-01-28 01:40:00,42.9,31.2,30.39,ESE,108,0.0,0.0,63,0.00,,,0.00,Wunderground v.1.15,2013-01-28 06:40:00,
2013-01-28 01:46:00,42.7,31.0,30.39,ESE,108,0.0,0.0,63,0.00,,,0.00,Wunderground v.1.15,2013-01-28 06:46:00,
2013-01-28 01:51:00,42.7,31.0,30.39,ESE,108,0.0,0.0,63,0.00,,,0.00,Wunderground v.1.15,2013-01-28 06:51:00,
2013-01-28 01:56:00,42.7,31.0,30.40,ESE,108,0.0,0.0,63,0.00,,,0.00,Wunderground v.1.15,2013-01-28 06:56:00,
2013-01-28 02:01:00,42.6,30.9,30.40,ESE,108,0.0,0.0,63,0.00,,,0.00,Wunderground v.1.15,2013-01-28 07:01:00,
2013-01-28 02:07:00,42.5,30.8,30.40,ESE,108,0.0,0.0,63,0.00,,,0.00,Wunderground v.1.15,2013-01-28 07:07:00,
2013-01-28 02:12:00,42.4,30.7,30.40,ESE,108,0.0,0.0,63,0.00,,,0.00,Wunderground v.1.15,2013-01-28 07:12:00,
2013-01-28 02:17:00,42.3,31.4,30.41,ESE,108,0.0,0.0,65,0.00,,,0.00,Wunderground v.1.15,2013-01-28 07:17:00,
2013-01-28 02:22:00,41.9,31.7,30.42,ESE,108,0.0,0.0,67,0.00,,,0.00,Wunderground v.1.15,2013-01-28 07:22:00,
2013-01-28 02:27:00,41.5,31.4,30.41,ESE,108,0.0,0.0,67,0.00,,,0.00,Wunderground v.1.15,2013-01-28 07:27:00,
2013-01-28 02:32:00,41.3,31.5,30.42,ESE,108,0.0,0.0,68,0.00,,,0.00,Wunderground v.1.15,2013-01-28 07:32:00,
2013-01-28 02:37:00,41.3,31.5,30.42,ESE,108,0.0,0.0,68,0.00,,,0.00,Wunderground v.1.15,2013-01-28 07:37:00,
2013-01-28 02:42:00,41.5,31.4,30.41,ESE,108,0.0,0.0,67,0.00,,,0.00,Wunderground v.1.15,2013-01-28 07:42:00,
2013-01-28 02:47:00,41.5,31.4,30.41,ESE,108,0.0,0.0,67,0.00,,,0.00,Wunderground v.1.15,2013-01-28 07:47:00,
2013-01-28 02:52:00,41.6,31.4,30.41,ESE,108,0.0,0.0,67,0.00,,,0.00,Wunderground v.1.15,2013-01-28 07:52:00,
2013-01-28 02:57:00,41.8,31.6,30.41,ESE,108,0.0,0.0,67,0.00,,,0.00,Wunderground v.1.15,2013-01-28 07:57:00,
2013-01-28 03:02:00,41.9,32.5,30.42,ESE,108,0.0,0.0,69,0.00,,,0.00,Wunderground v.1.15,2013-01-28 08:02:00,
2013-01-28 03:07:00,42.0,32.2,30.41,ESE,108,0.0,0.0,68,0.00,,,0.00,Wunderground v.1.15,2013-01-28 08:07:00,
2013-01-28 03:12:00,42.1,32.3,30.41,ESE,107,0.0,0.0,68,0.00,,,0.00,Wunderground v.1.15,2013-01-28 08:12:00,
2013-01-28 03:17:00,42.1,31.9,30.40,ESE,107,0.0,0.0,67,0.00,,,0.00,Wunderground v.1.15,2013-01-28 08:17:00,
2013-01-28 03:22:00,42.2,32.0,30.40,ESE,107,0.0,0.0,67,0.00,,,0.00,Wunderground v.1.15,2013-01-28 08:22:00,
2013-01-28 03:27:00,42.2,32.4,30.40,ESE,107,0.0,0.0,68,0.00,,,0.00,Wunderground v.1.15,2013-01-28 08:27:00,
2013-01-28 03:32:00,42.3,32.1,30.40,ESE,107,0.0,0.0,67,0.00,,,0.00,Wunderground v.1.15,2013-01-28 08:32:00,
2013-01-28 03:37:00,42.4,32.2,30.39,ESE,107,0.0,0.0,67,0.00,,,0.00,Wunderground v.1.15,2013-01-28 08:37:00,
2013-01-28 03:42:00,42.5,32.3,30.39,ESE,107,0.0,0.0,67,0.00,,,0.00,Wunderground v.1.15,2013-01-28 08:42:00,
2013-01-28 03:47:00,42.5,31.9,30.40,ESE,107,0.0,0.0,66,0.00,,,0.00,Wunderground v.1.15,2013-01-28 08:47:00,
2013-01-28 03:52:00,42.6,32.0,30.40,ESE,107,0.0,0.0,66,0.00,,,0.00,Wunderground v.1.15,2013-01-28 08:52:00,
2013-01-28 03:57:00,42.6,31.7,30.40,East,91,0.0,2.0,65,0.00,,,0.00,Wunderground v.1.15,2013-01-28 08:57:00,
2013-01-28 04:02:00,42.5,31.9,30.40,ENE,75,0.0,0.0,66,0.00,,,0.00,Wunderground v.1.15,2013-01-28 09:02:00,
2013-01-28 04:07:00,42.5,31.9,30.40,ENE,75,0.0,0.0,66,0.00,,,0.00,Wunderground v.1.15,2013-01-28 09:07:00,
2013-01-28 04:13:00,42.5,31.9,30.40,ENE,75,0.0,0.0,66,0.00,,,0.00,Wunderground v.1.15,2013-01-28 09:13:00,
2013-01-28 04:18:00,42.5,31.9,30.40,ENE,75,0.0,0.0,66,0.00,,,0.00,Wunderground v.1.15,2013-01-28 09:18:00,
2013-01-28 04:23:00,42.6,32.4,30.40,ENE,75,0.0,0.0,67,0.00,,,0.00,Wunderground v.1.15,2013-01-28 09:23:00,
2013-01-28 04:28:00,42.6,32.0,30.40,ENE,75,0.0,0.0,66,0.00,,,0.00,Wunderground v.1.15,2013-01-28 09:28:00,
2013-01-28 04:33:00,42.7,32.1,30.40,ENE,75,0.0,0.0,66,0.00,,,0.00,Wunderground v.1.15,2013-01-28 09:33:00,
2013-01-28 04:38:00,42.7,32.1,30.40,ENE,75,0.0,0.0,66,0.00,,,0.00,Wunderground v.1.15,2013-01-28 09:38:00,
2013-01-28 04:43:00,42.7,32.5,30.40,ENE,75,0.0,3.0,67,0.00,,,0.00,Wunderground v.1.15,2013-01-28 09:43:00,
2013-01-28 04:48:00,42.6,32.4,30.40,ENE,75,0.0,3.0,67,0.00,,,0.00,Wunderground v.1.15,2013-01-28 09:48:00,
2013-01-28 04:53:00,42.6,32.4,30.40,ENE,75,3.0,3.0,67,0.00,,,0.00,Wunderground v.1.15,2013-01-28 09:53:00,
2013-01-28 04:58:00,42.6,32.4,30.40,ENE,75,3.0,4.0,67,0.00,,,0.00,Wunderground v.1.15,2013-01-28 09:58:00,
2013-01-28 05:03:00,42.5,32.3,30.40,NE,51,3.0,5.0,67,0.00,,,0.00,Wunderground v.1.15,2013-01-28 10:03:00,
2013-01-28 05:08:00,42.5,32.3,30.41,NE,53,3.0,5.0,67,0.00,,,0.00,Wunderground v.1.15,2013-01-28 10:08:00,
2013-01-28 05:14:00,42.4,32.6,30.41,NE,49,3.0,5.0,68,0.00,,,0.00,Wunderground v.1.15,2013-01-28 10:14:00,
2013-01-28 05:19:00,42.3,32.5,30.41,NE,46,0.0,5.0,68,0.00,,,0.00,Wunderground v.1.15,2013-01-28 10:19:00,
2013-01-28 05:24:00,42.3,32.5,30.40,NE,49,0.0,2.0,68,0.00,,,0.00,Wunderground v.1.15,2013-01-28 10:24:00,
2013-01-28 05:29:00,42.2,32.0,30.40,ENE,66,3.0,4.0,67,0.00,,,0.00,Wunderground v.1.15,2013-01-28 10:29:00,
2013-01-28 05:34:00,42.0,31.8,30.40,ENE,74,2.0,4.0,67,0.00,,,0.00,Wunderground v.1.15,2013-01-28 10:34:00,
2013-01-28 05:39:00,41.9,31.7,30.40,NE,49,2.0,5.0,67,0.00,,,0.00,Wunderground v.1.15,2013-01-28 10:39:00,
2013-01-28 05:44:00,41.8,31.6,30.40,NE,55,2.0,5.0,67,0.00,,,0.00,Wunderground v.1.15,2013-01-28 10:44:00,
2013-01-28 05:49:00,41.8,31.6,30.40,ENE,57,4.0,5.0,67,0.00,,,0.00,Wunderground v.1.15,2013-01-28 10:49:00,
2013-01-28 05:54:00,41.7,31.9,30.40,ENE,63,2.0,5.0,68,0.00,,,0.00,Wunderground v.1.15,2013-01-28 10:54:00,
2013-01-28 05:59:00,41.6,31.8,30.39,ENE,63,0.0,5.0,68,0.00,,,0.00,Wunderground v.1.15,2013-01-28 10:59:00,
2013-01-28 06:04:00,41.7,31.9,30.39,ENE,63,0.0,1.0,68,0.00,,,0.00,Wunderground v.1.15,2013-01-28 11:04:00,
2013-01-28 06:09:00,41.6,31.8,30.39,ENE,63,0.0,3.0,68,0.00,,,0.00,Wunderground v.1.15,2013-01-28 11:09:00,
2013-01-28 06:14:00,41.7,31.9,30.39,ENE,63,0.0,1.0,68,0.00,,,0.00,Wunderground v.1.15,2013-01-28 11:14:00,
2013-01-28 06:19:00,41.7,31.9,30.39,ENE,63,0.0,1.0,68,0.00,,,0.00,Wunderground v.1.15,2013-01-28 11:19:00,
2013-01-28 06:24:00,41.7,31.9,30.39,ENE,63,0.0,0.0,68,0.00,,,0.00,Wunderground v.1.15,2013-01-28 11:24:00,
2013-01-28 06:29:00,41.8,32.4,30.39,ENE,63,0.0,0.0,69,0.00,,,0.00,Wunderground v.1.15,2013-01-28 11:29:00,
2013-01-28 06:34:00,41.8,32.4,30.39,ENE,63,0.0,0.0,69,0.00,,,0.00,Wunderground v.1.15,2013-01-28 11:34:00,
2013-01-28 06:39:00,41.8,32.4,30.39,ENE,63,0.0,0.0,69,0.00,,,0.00,Wunderground v.1.15,2013-01-28 11:39:00,
2013-01-28 06:44:00,41.8,32.4,30.39,ENE,63,0.0,0.0,69,0.00,,,0.00,Wunderground v.1.15,2013-01-28 11:44:00,
2013-01-28 06:49:00,41.8,32.4,30.39,ENE,63,0.0,0.0,69,0.00,,,0.00,Wunderground v.1.15,2013-01-28 11:49:00,
2013-01-28 06:54:00,41.8,32.4,30.40,ENE,63,0.0,0.0,69,0.00,,,0.00,Wunderground v.1.15,2013-01-28 11:54:00,
2013-01-28 06:59:00,41.8,32.4,30.40,South,172,0.0,5.0,69,0.00,,,0.00,Wunderground v.1.15,2013-01-28 11:59:00,
2013-01-28 07:04:00,41.8,32.4,30.40,South,172,0.0,0.0,69,0.00,,,0.00,Wunderground v.1.15,2013-01-28 12:04:00,
2013-01-28 07:09:00,41.7,32.6,30.40,South,172,0.0,0.0,70,0.00,,,0.00,Wunderground v.1.15,2013-01-28 12:09:00,
2013-01-28 07:14:00,41.7,32.6,30.40,SSE,150,0.0,0.0,70,0.00,,,0.00,Wunderground v.1.15,2013-01-28 12:14:00,
2013-01-28 07:19:00,41.6,32.5,30.41,ENE,77,0.0,0.0,70,0.00,,,0.00,Wunderground v.1.15,2013-01-28 12:19:00,
2013-01-28 07:25:00,41.6,32.5,30.41,ENE,77,0.0,0.0,70,0.00,,,0.00,Wunderground v.1.15,2013-01-28 12:25:00,
2013-01-28 07:30:00,41.6,32.9,30.42,ENE,77,0.0,0.0,71,0.00,,,0.00,Wunderground v.1.15,2013-01-28 12:30:00,
2013-01-28 07:35:00,41.6,32.5,30.41,ENE,77,0.0,0.0,70,0.00,,,0.00,Wunderground v.1.15,2013-01-28 12:35:00,
2013-01-28 07:40:00,41.6,32.5,30.42,ENE,76,0.0,0.0,70,0.00,,,0.00,Wunderground v.1.15,2013-01-28 12:40:00,
2013-01-28 07:45:00,41.7,32.6,30.42,ENE,76,0.0,0.0,70,0.00,,,0.00,Wunderground v.1.15,2013-01-28 12:45:00,
2013-01-28 07:50:00,41.7,32.6,30.41,ENE,77,0.0,0.0,70,0.00,,,0.00,Wunderground v.1.15,2013-01-28 12:50:00,
2013-01-28 07:55:00,41.8,33.1,30.41,ENE,77,0.0,0.0,71,0.00,,,0.00,Wunderground v.1.15,2013-01-28 12:55:00,
2013-01-28 08:00:00,41.8,32.7,30.42,ENE,76,0.0,0.0,70,0.00,,,0.00,Wunderground v.1.15,2013-01-28 13:00:00,
2013-01-28 08:05:00,41.9,32.8,30.42,ENE,77,0.0,0.0,70,0.00,,,0.00,Wunderground v.1.15,2013-01-28 13:05:00,
2013-01-28 08:10:00,41.9,33.2,30.42,ENE,76,0.0,0.0,71,0.00,,,0.00,Wunderground v.1.15,2013-01-28 13:10:00,
2013-01-28 08:15:00,41.9,33.2,30.42,ENE,76,0.0,0.0,71,0.00,,,0.00,Wunderground v.1.15,2013-01-28 13:15:00,
2013-01-28 08:20:00,41.9,33.2,30.42,ENE,75,0.0,0.0,71,0.00,,,0.00,Wunderground v.1.15,2013-01-28 13:20:00,
2013-01-28 08:25:00,41.9,33.2,30.42,ENE,75,0.0,0.0,71,0.00,,,0.00,Wunderground v.1.15,2013-01-28 13:25:00,
2013-01-28 08:30:00,41.9,33.2,30.42,ENE,76,0.0,0.0,71,0.00,,,0.00,Wunderground v.1.15,2013-01-28 13:30:00,
2013-01-28 08:35:00,41.8,33.1,30.42,ENE,76,1.0,3.0,71,0.00,,,0.00,Wunderground v.1.15,2013-01-28 13:35:00,
2013-01-28 08:40:00,41.8,33.1,30.42,ENE,76,0.0,3.0,71,0.00,,,0.00,Wunderground v.1.15,2013-01-28 13:40:00,
2013-01-28 08:45:00,41.8,33.4,30.42,ENE,76,0.0,0.0,72,0.00,,,0.00,Wunderground v.1.15,2013-01-28 13:45:00,
2013-01-28 08:50:00,41.9,33.2,30.42,ENE,76,0.0,0.0,71,0.00,,,0.00,Wunderground v.1.15,2013-01-28 13:50:00,
2013-01-28 08:55:00,41.9,33.2,30.42,ENE,76,0.0,0.0,71,0.00,,,0.00,Wunderground v.1.15,2013-01-28 13:55:00,
2013-01-28 09:00:00,42.0,33.3,30.42,ENE,76,0.0,0.0,71,0.00,,,0.00,Wunderground v.1.15,2013-01-28 14:00:00,
2013-01-28 09:05:00,42.1,33.4,30.42,ENE,76,0.0,0.0,71,0.00,,,0.00,Wunderground v.1.15,2013-01-28 14:05:00,
2013-01-28 09:10:00,42.3,33.6,30.42,ENE,76,0.0,0.0,71,0.00,,,0.00,Wunderground v.1.15,2013-01-28 14:10:00,
2013-01-28 09:15:00,42.4,33.7,30.42,ENE,76,0.0,0.0,71,0.00,,,0.00,Wunderground v.1.15,2013-01-28 14:15:00,
2013-01-28 09:20:00,42.5,33.8,30.42,ENE,76,0.0,0.0,71,0.00,,,0.00,Wunderground v.1.15,2013-01-28 14:20:00,
2013-01-28 09:25:00,42.5,33.4,30.42,ENE,76,0.0,0.0,70,0.00,,,0.00,Wunderground v.1.15,2013-01-28 14:25:00,
2013-01-28 09:30:00,42.5,34.5,30.42,ENE,76,0.0,0.0,73,0.00,,,0.00,Wunderground v.1.15,2013-01-28 14:30:00,
2013-01-28 09:35:00,42.5,35.5,30.42,ENE,76,0.0,0.0,76,0.00,,,0.00,Wunderground v.1.15,2013-01-28 14:35:00,
2013-01-28 09:40:00,42.5,35.5,30.42,ENE,76,0.0,0.0,76,0.00,,,0.00,Wunderground v.1.15,2013-01-28 14:40:00,
2013-01-28 09:45:00,42.5,35.8,30.42,ENE,76,0.0,0.0,77,0.00,,,0.00,Wunderground v.1.15,2013-01-28 14:45:00,
2013-01-28 09:50:00,42.5,35.5,30.42,ENE,76,0.0,0.0,76,0.00,,,0.00,Wunderground v.1.15,2013-01-28 14:50:00,
2013-01-28 09:55:00,42.4,35.7,30.42,ENE,76,0.0,0.0,77,0.00,,,0.00,Wunderground v.1.15,2013-01-28 14:55:00,
2013-01-28 10:00:00,42.3,35.6,30.42,ENE,76,0.0,0.0,77,0.00,,,0.00,Wunderground v.1.15,2013-01-28 15:00:00,
2013-01-28 10:05:00,42.3,35.6,30.42,ENE,76,0.0,0.0,77,0.00,,,0.00,Wunderground v.1.15,2013-01-28 15:05:00,
2013-01-28 10:10:00,42.4,35.7,30.42,ENE,76,0.0,0.0,77,0.00,,,0.00,Wunderground v.1.15,2013-01-28 15:10:00,
2013-01-28 10:15:00,42.3,35.9,30.43,ENE,76,0.0,0.0,78,0.00,,,0.00,Wunderground v.1.15,2013-01-28 15:15:00,
2013-01-28 10:20:00,42.4,35.7,30.43,ENE,76,0.0,0.0,77,0.00,,,0.00,Wunderground v.1.15,2013-01-28 15:20:00,
2013-01-28 10:25:00,42.4,36.0,30.43,ENE,76,0.0,0.0,78,0.00,,,0.00,Wunderground v.1.15,2013-01-28 15:25:00,
2013-01-28 10:30:00,42.4,36.0,30.42,ENE,76,0.0,0.0,78,0.00,,,0.00,Wunderground v.1.15,2013-01-28 15:30:00,
2013-01-28 10:36:00,42.4,36.0,30.42,ENE,76,0.0,0.0,78,0.00,,,0.00,Wunderground v.1.15,2013-01-28 15:36:00,
2013-01-28 10:41:00,42.5,35.8,30.42,ENE,76,0.0,0.0,77,0.00,,,0.00,Wunderground v.1.15,2013-01-28 15:41:00,
2013-01-28 10:46:00,42.5,36.1,30.42,ENE,76,0.0,0.0,78,0.00,,,0.00,Wunderground v.1.15,2013-01-28 15:46:00,
2013-01-28 10:51:00,42.6,36.2,30.42,ENE,76,0.0,0.0,78,0.00,,,0.00,Wunderground v.1.15,2013-01-28 15:51:00,
2013-01-28 10:56:00,42.8,36.7,30.42,ENE,76,0.0,0.0,79,0.00,,,0.00,Wunderground v.1.15,2013-01-28 15:56:00,
2013-01-28 11:01:00,43.0,36.9,30.41,ENE,76,0.0,0.0,79,0.00,,,0.00,Wunderground v.1.15,2013-01-28 16:01:00,
2013-01-28 11:06:00,43.1,36.7,30.41,ENE,76,0.0,0.0,78,0.00,,,0.00,Wunderground v.1.15,2013-01-28 16:06:00,
2013-01-28 11:11:00,43.4,37.6,30.41,ENE,76,0.0,0.0,80,0.00,,,0.00,Wunderground v.1.15,2013-01-28 16:11:00,
2013-01-28 11:16:00,43.7,37.6,30.41,ENE,76,0.0,0.0,79,0.00,,,0.00,Wunderground v.1.15,2013-01-28 16:16:00,
2013-01-28 11:21:00,43.8,37.7,30.41,ENE,76,0.0,0.0,79,0.00,,,0.00,Wunderground v.1.15,2013-01-28 16:21:00,
2013-01-28 11:26:00,44.1,38.0,30.41,ENE,76,0.0,0.0,79,0.00,,,0.00,Wunderground v.1.15,2013-01-28 16:26:00,
2013-01-28 11:31:00,44.5,38.4,30.41,ENE,76,0.0,0.0,79,0.00,,,0.00,Wunderground v.1.15,2013-01-28 16:31:00,
2013-01-28 11:36:00,44.7,38.6,30.40,ENE,76,0.0,0.0,79,0.00,,,0.00,Wunderground v.1.15,2013-01-28 16:36:00,
2013-01-28 11:41:00,45.1,39.6,30.40,ENE,76,0.0,0.0,81,0.00,,,0.00,Wunderground v.1.15,2013-01-28 16:41:00,
2013-01-28 11:46:00,45.5,39.7,30.40,ENE,77,0.0,0.0,80,0.00,,,0.00,Wunderground v.1.15,2013-01-28 16:46:00,
2013-01-28 11:51:00,45.7,39.2,30.39,ENE,77,0.0,0.0,78,0.00,,,0.00,Wunderground v.1.15,2013-01-28 16:51:00,
2013-01-28 11:56:00,46.0,39.9,30.39,ENE,77,0.0,0.0,79,0.00,,,0.00,Wunderground v.1.15,2013-01-28 16:56:00,
2013-01-28 12:01:00,46.3,39.8,30.39,ENE,77,0.0,0.0,78,0.00,,,0.00,Wunderground v.1.15,2013-01-28 17:01:00,
2013-01-28 12:06:00,46.8,41.0,30.39,ENE,77,0.0,0.0,80,0.00,,,0.00,Wunderground v.1.15,2013-01-28 17:06:00,
2013-01-28 12:11:00,47.3,41.4,30.38,ENE,77,0.0,1.0,80,0.00,,,0.00,Wunderground v.1.15,2013-01-28 17:11:00,
2013-01-28 12:16:00,47.6,41.1,30.38,ENE,77,0.0,1.0,78,0.00,,,0.00,Wunderground v.1.15,2013-01-28 17:16:00,
2013-01-28 12:21:00,47.7,41.2,30.38,ENE,77,0.0,0.0,78,0.00,,,0.00,Wunderground v.1.15,2013-01-28 17:21:00,
2013-01-28 12:27:00,48.1,41.2,30.37,SW,214,3.0,5.0,77,0.00,,,0.00,Wunderground v.1.15,2013-01-28 17:27:00,
2013-01-28 12:32:00,48.5,41.3,30.36,SSE,153,0.0,2.0,76,0.00,,,0.00,Wunderground v.1.15,2013-01-28 17:32:00,
2013-01-28 12:37:00,49.0,41.4,30.36,SE,131,0.0,4.0,75,0.00,,,0.00,Wunderground v.1.15,2013-01-28 17:37:00,
2013-01-28 12:42:00,49.5,41.6,30.36,SSW,197,0.0,2.0,74,0.00,,,0.00,Wunderground v.1.15,2013-01-28 17:42:00,
2013-01-28 12:47:00,49.7,41.7,30.36,SSW,197,1.0,3.0,74,0.00,,,0.00,Wunderground v.1.15,2013-01-28 17:47:00,
2013-01-28 12:52:00,49.8,41.5,30.35,South,186,1.0,3.0,73,0.00,,,0.00,Wunderground v.1.15,2013-01-28 17:52:00,
2013-01-28 12:57:00,50.0,42.7,30.35,South,186,2.0,4.0,76,0.00,,,0.00,Wunderground v.1.15,2013-01-28 17:57:00,
2013-01-28 13:02:00,50.1,42.1,30.34,South,186,0.0,1.0,74,0.00,,,0.00,Wunderground v.1.15,2013-01-28 18:02:00,
2013-01-28 13:07:00,50.3,42.3,30.34,South,186,0.0,1.0,74,0.00,,,0.00,Wunderground v.1.15,2013-01-28 18:07:00,
2013-01-28 13:12:00,50.7,42.7,30.34,South,186,0.0,3.0,74,0.00,,,0.00,Wunderground v.1.15,2013-01-28 18:12:00,
2013-01-28 13:17:00,51.2,43.2,30.34,South,186,0.0,3.0,74,0.00,,,0.00,Wunderground v.1.15,2013-01-28 18:17:00,
2013-01-28 13:22:00,51.5,42.8,30.33,NE,51,4.0,4.0,72,0.00,,,0.00,Wunderground v.1.15,2013-01-28 18:22:00,
2013-01-28 13:27:00,51.6,43.2,30.33,NE,49,0.0,4.0,73,0.00,,,0.00,Wunderground v.1.15,2013-01-28 18:27:00,
2013-01-28 13:32:00,51.8,43.4,30.32,NE,50,0.0,1.0,73,0.00,,,0.00,Wunderground v.1.15,2013-01-28 18:32:00,
2013-01-28 13:37:00,52.3,43.5,30.32,NE,50,0.0,1.0,72,0.00,,,0.00,Wunderground v.1.15,2013-01-28 18:37:00,
2013-01-28 13:42:00,52.7,43.6,30.32,NE,50,0.0,0.0,71,0.00,,,0.00,Wunderground v.1.15,2013-01-28 18:42:00,
2013-01-28 13:47:00,53.0,43.5,30.32,NE,50,0.0,0.0,70,0.00,,,0.00,Wunderground v.1.15,2013-01-28 18:47:00,
2013-01-28 13:52:00,52.7,43.6,30.32,NE,48,0.0,0.0,71,0.00,,,0.00,Wunderground v.1.15,2013-01-28 18:52:00,
2013-01-28 13:57:00,52.5,43.7,30.32,NE,47,0.0,0.0,72,0.00,,,0.00,Wunderground v.1.15,2013-01-28 18:57:00,
2013-01-28 14:02:00,52.6,43.8,30.32,NE,38,0.0,0.0,72,0.00,,,0.00,Wunderground v.1.15,2013-01-28 19:02:00,
2013-01-28 14:07:00,52.5,43.7,30.31,NE,55,4.0,4.0,72,0.00,,,0.00,Wunderground v.1.15,2013-01-28 19:07:00,
2013-01-28 14:12:00,52.3,43.5,30.31,NE,55,4.0,4.0,72,0.00,,,0.00,Wunderground v.1.15,2013-01-28 19:12:00,
2013-01-28 14:17:00,52.3,43.9,30.31,NE,55,3.0,4.0,73,0.00,,,0.00,Wunderground v.1.15,2013-01-28 19:17:00,
2013-01-28 14:22:00,52.3,43.9,30.31,NE,55,3.0,4.0,73,0.00,,,0.00,Wunderground v.1.15,2013-01-28 19:22:00,
2013-01-28 14:28:00,52.4,44.0,30.30,NE,55,1.0,4.0,73,0.00,,,0.00,Wunderground v.1.15,2013-01-28 19:28:00,
2013-01-28 14:33:00,52.6,44.2,30.30,NE,55,0.0,2.0,73,0.00,,,0.00,Wunderground v.1.15,2013-01-28 19:33:00,
2013-01-28 14:38:00,52.8,44.0,30.30,NE,55,0.0,3.0,72,0.00,,,0.00,Wunderground v.1.15,2013-01-28 19:38:00,
2013-01-28 14:43:00,52.9,44.5,30.30,NE,55,0.0,0.0,73,0.00,,,0.00,Wunderground v.1.15,2013-01-28 19:43:00,
2013-01-28 14:48:00,53.2,44.4,30.30,NE,55,0.0,0.0,72,0.00,,,0.00,Wunderground v.1.15,2013-01-28 19:48:00,
2013-01-28 14:53:00,53.5,44.7,30.29,NE,55,0.0,0.0,72,0.00,,,0.00,Wunderground v.1.15,2013-01-28 19:53:00,
2013-01-28 14:58:00,54.2,45.4,30.29,NE,55,0.0,0.0,72,0.00,,,0.00,Wunderground v.1.15,2013-01-28 19:58:00,
2013-01-28 15:03:00,54.6,45.0,30.29,NE,55,0.0,0.0,70,0.00,,,0.00,Wunderground v.1.15,2013-01-28 20:03:00,
2013-01-28 15:08:00,55.0,45.4,30.28,NE,55,0.0,0.0,70,0.00,,,0.00,Wunderground v.1.15,2013-01-28 20:08:00,
2013-01-28 15:13:00,55.6,45.2,30.29,NE,55,0.0,0.0,68,0.00,,,0.00,Wunderground v.1.15,2013-01-28 20:13:00,
2013-01-28 15:18:00,56.1,45.3,30.29,NE,55,0.0,0.0,67,0.00,,,0.00,Wunderground v.1.15,2013-01-28 20:18:00,
2013-01-28 15:23:00,56.6,45.8,30.29,NE,55,0.0,0.0,67,0.00,,,0.00,Wunderground v.1.15,2013-01-28 20:23:00,
2013-01-28 15:28:00,57.1,45.8,30.29,NE,55,0.0,0.0,66,0.00,,,0.00,Wunderground v.1.15,2013-01-28 20:28:00,
2013-01-28 15:33:00,57.5,45.8,30.29,NE,55,0.0,0.0,65,0.00,,,0.00,Wunderground v.1.15,2013-01-28 20:33:00,
2013-01-28 15:38:00,57.5,45.8,30.28,South,177,1.0,5.0,65,0.00,,,0.00,Wunderground v.1.15,2013-01-28 20:38:00,
2013-01-28 15:43:00,57.6,46.3,30.28,South,177,0.0,1.0,66,0.00,,,0.00,Wunderground v.1.15,2013-01-28 20:43:00,
2013-01-28 15:48:00,57.7,46.4,30.28,South,177,0.0,1.0,66,0.00,,,0.00,Wunderground v.1.15,2013-01-28 20:48:00,
2013-01-28 15:53:00,57.8,46.1,30.28,South,177,0.0,0.0,65,0.00,,,0.00,Wunderground v.1.15,2013-01-28 20:53:00,
2013-01-28 15:58:00,57.7,46.0,30.28,South,177,0.0,0.0,65,0.00,,,0.00,Wunderground v.1.15,2013-01-28 20:58:00,
2013-01-28 16:03:00,57.7,46.4,30.28,South,177,1.0,4.0,66,0.00,,,0.00,Wunderground v.1.15,2013-01-28 21:03:00,
2013-01-28 16:08:00,57.7,46.4,30.28,South,177,0.0,4.0,66,0.00,,,0.00,Wunderground v.1.15,2013-01-28 21:08:00,
2013-01-28 16:13:00,58.0,46.7,30.27,South,177,0.0,0.0,66,0.00,,,0.00,Wunderground v.1.15,2013-01-28 21:13:00,
2013-01-28 16:18:00,58.5,46.8,30.28,South,177,0.0,0.0,65,0.00,,,0.00,Wunderground v.1.15,2013-01-28 21:18:00,
2013-01-28 16:23:00,58.6,46.9,30.28,South,177,0.0,0.0,65,0.00,,,0.00,Wunderground v.1.15,2013-01-28 21:23:00,
2013-01-28 16:28:00,58.5,45.9,30.28,South,177,0.0,0.0,63,0.00,,,0.00,Wunderground v.1.15,2013-01-28 21:28:00,
2013-01-28 16:33:00,57.8,45.3,30.28,South,177,0.0,0.0,63,0.00,,,0.00,Wunderground v.1.15,2013-01-28 21:33:00,
2013-01-28 16:38:00,57.3,45.2,30.27,South,177,0.0,0.0,64,0.00,,,0.00,Wunderground v.1.15,2013-01-28 21:38:00,
2013-01-28 16:43:00,56.9,45.7,30.27,South,177,0.0,0.0,66,0.00,,,0.00,Wunderground v.1.15,2013-01-28 21:43:00,
2013-01-28 16:48:00,56.6,45.4,30.28,South,176,0.0,0.0,66,0.00,,,0.00,Wunderground v.1.15,2013-01-28 21:48:00,
2013-01-28 16:53:00,56.4,45.2,30.27,South,176,0.0,0.0,66,0.00,,,0.00,Wunderground v.1.15,2013-01-28 21:53:00,
2013-01-28 16:58:00,56.3,45.1,30.27,South,176,0.0,0.0,66,0.00,,,0.00,Wunderground v.1.15,2013-01-28 21:58:00,
2013-01-28 17:03:00,56.1,45.3,30.27,South,176,0.0,0.0,67,0.00,,,0.00,Wunderground v.1.15,2013-01-28 22:03:00,
2013-01-28 17:08:00,56.2,45.4,30.27,South,176,0.0,0.0,67,0.00,,,0.00,Wunderground v.1.15,2013-01-28 22:08:00,
2013-01-28 17:13:00,56.2,45.4,30.27,South,176,0.0,0.0,67,0.00,,,0.00,Wunderground v.1.15,2013-01-28 22:13:00,
2013-01-28 17:18:00,56.0,45.2,30.27,South,176,0.0,0.0,67,0.00,,,0.00,Wunderground v.1.15,2013-01-28 22:18:00,
2013-01-28 17:23:00,55.7,45.3,30.27,South,175,0.0,0.0,68,0.00,,,0.00,Wunderground v.1.15,2013-01-28 22:23:00,
2013-01-28 17:28:00,55.5,45.1,30.27,South,175,0.0,0.0,68,0.00,,,0.00,Wunderground v.1.15,2013-01-28 22:28:00,
2013-01-28 17:33:00,55.3,45.3,30.27,South,175,0.0,0.0,69,0.00,,,0.00,Wunderground v.1.15,2013-01-28 22:33:00,
2013-01-28 17:38:00,55.0,45.0,30.27,South,175,0.0,0.0,69,0.00,,,0.00,Wunderground v.1.15,2013-01-28 22:38:00,
2013-01-28 17:43:00,54.7,45.1,30.27,South,175,0.0,0.0,70,0.00,,,0.00,Wunderground v.1.15,2013-01-28 22:43:00,
2013-01-28 17:48:00,54.4,45.2,30.27,South,175,0.0,0.0,71,0.00,,,0.00,Wunderground v.1.15,2013-01-28 22:48:00,
2013-01-28 17:53:00,54.0,45.2,30.27,South,175,0.0,0.0,72,0.00,,,0.00,Wunderground v.1.15,2013-01-28 22:53:00,
2013-01-28 17:58:00,53.7,44.9,30.27,South,175,0.0,0.0,72,0.00,,,0.00,Wunderground v.1.15,2013-01-28 22:58:00,
2013-01-28 18:03:00,53.5,45.1,30.27,NE,42,3.0,4.0,73,0.00,,,0.00,Wunderground v.1.15,2013-01-28 23:03:00,
2013-01-28 18:09:00,53.0,44.9,30.28,NE,41,0.0,4.0,74,0.00,,,0.00,Wunderground v.1.15,2013-01-28 23:09:00,
2013-01-28 18:14:00,52.6,44.9,30.28,NE,41,0.0,1.0,75,0.00,,,0.00,Wunderground v.1.15,2013-01-28 23:14:00,
2013-01-28 18:19:00,52.2,44.9,30.28,NE,41,0.0,1.0,76,0.00,,,0.00,Wunderground v.1.15,2013-01-28 23:19:00,
2013-01-28 18:24:00,51.7,44.7,30.28,NE,41,0.0,0.0,77,0.00,,,0.00,Wunderground v.1.15,2013-01-28 23:24:00,
2013-01-28 18:29:00,51.5,44.5,30.28,NE,41,0.0,0.0,77,0.00,,,0.00,Wunderground v.1.15,2013-01-28 23:29:00,
2013-01-28 18:34:00,51.2,44.6,30.28,NE,41,0.0,0.0,78,0.00,,,0.00,Wunderground v.1.15,2013-01-28 23:34:00,
2013-01-28 18:39:00,50.9,44.3,30.28,NE,41,0.0,0.0,78,0.00,,,0.00,Wunderground v.1.15,2013-01-28 23:39:00,
2013-01-28 18:44:00,50.6,44.3,30.28,NE,41,0.0,0.0,79,0.00,,,0.00,Wunderground v.1.15,2013-01-28 23:44:00,
2013-01-28 18:49:00,50.3,44.4,30.28,NE,41,0.0,0.0,80,0.00,,,0.00,Wunderground v.1.15,2013-01-28 23:49:00,
2013-01-28 18:54:00,50.1,44.2,30.28,NE,41,0.0,0.0,80,0.00,,,0.00,Wunderground v.1.15,2013-01-28 23:54:00,
2013-01-28 18:59:00,49.7,44.1,30.28,NE,41,0.0,0.0,81,0.00,,,0.00,Wunderground v.1.15,2013-01-28 23:59:00,
2013-01-28 19:04:00,49.5,43.9,30.28,NE,41,0.0,0.0,81,0.00,,,0.00,Wunderground v.1.15,2013-01-29 00:04:00,
2013-01-28 19:09:00,49.2,43.6,30.29,NE,41,0.0,0.0,81,0.00,,,0.00,Wunderground v.1.15,2013-01-29 00:09:00,
2013-01-28 19:14:00,48.9,43.6,30.28,NE,41,0.0,0.0,82,0.00,,,0.00,Wunderground v.1.15,2013-01-29 00:14:00,
2013-01-28 19:19:00,48.5,43.3,30.28,NE,41,0.0,0.0,82,0.00,,,0.00,Wunderground v.1.15,2013-01-29 00:19:00,
2013-01-28 19:24:00,48.2,43.3,30.28,NE,41,0.0,0.0,83,0.00,,,0.00,Wunderground v.1.15,2013-01-29 00:24:00,
2013-01-28 19:29:00,48.0,43.4,30.29,NE,41,0.0,0.0,84,0.00,,,0.00,Wunderground v.1.15,2013-01-29 00:29:00,
2013-01-28 19:34:00,47.7,43.1,30.29,NE,41,0.0,0.0,84,0.00,,,0.00,Wunderground v.1.15,2013-01-29 00:34:00,
2013-01-28 19:39:00,47.5,43.2,30.29,NE,41,0.0,0.0,85,0.00,,,0.00,Wunderground v.1.15,2013-01-29 00:39:00,
2013-01-28 19:44:00,47.2,42.9,30.29,NE,41,0.0,0.0,85,0.00,,,0.00,Wunderground v.1.15,2013-01-29 00:44:00,
2013-01-28 19:49:00,46.9,42.6,30.29,NE,41,0.0,0.0,85,0.00,,,0.00,Wunderground v.1.15,2013-01-29 00:49:00,
2013-01-28 19:54:00,46.6,42.3,30.29,NE,41,0.0,0.0,85,0.00,,,0.00,Wunderground v.1.15,2013-01-29 00:54:00,
2013-01-28 19:59:00,46.3,42.0,30.29,NE,41,0.0,0.0,85,0.00,,,0.00,Wunderground v.1.15,2013-01-29 00:59:00,
2013-01-28 20:04:00,46.1,42.1,30.29,NE,41,0.0,0.0,86,0.00,,,0.00,Wunderground v.1.15,2013-01-29 01:04:00,
2013-01-28 20:09:00,45.9,41.9,30.29,NE,41,0.0,0.0,86,0.00,,,0.00,Wunderground v.1.15,2013-01-29 01:09:00,
2013-01-28 20:14:00,45.8,42.2,30.29,NE,41,0.0,0.0,87,0.00,,,0.00,Wunderground v.1.15,2013-01-29 01:14:00,
2013-01-28 20:19:00,45.6,42.0,30.29,NE,41,0.0,0.0,87,0.00,,,0.00,Wunderground v.1.15,2013-01-29 01:19:00,
2013-01-28 20:24:00,45.3,41.7,30.29,NE,41,0.0,0.0,87,0.00,,,0.00,Wunderground v.1.15,2013-01-29 01:24:00,
2013-01-28 20:29:00,45.1,41.5,30.29,NE,41,0.0,0.0,87,0.00,,,0.00,Wunderground v.1.15,2013-01-29 01:29:00,
2013-01-28 20:34:00,44.8,41.5,30.28,NE,41,0.0,0.0,88,0.00,,,0.00,Wunderground v.1.15,2013-01-29 01:34:00,
2013-01-28 20:39:00,44.7,41.4,30.29,NE,41,0.0,0.0,88,0.00,,,0.00,Wunderground v.1.15,2013-01-29 01:39:00,
2013-01-28 20:44:00,44.6,41.6,30.28,NE,41,0.0,0.0,89,0.00,,,0.00,Wunderground v.1.15,2013-01-29 01:44:00,
2013-01-28 20:49:00,44.7,41.7,30.29,NE,41,0.0,0.0,89,0.00,,,0.00,Wunderground v.1.15,2013-01-29 01:49:00,
2013-01-28 20:55:00,44.7,41.7,30.28,NE,41,0.0,0.0,89,0.00,,,0.00,Wunderground v.1.15,2013-01-29 01:55:00,
2013-01-28 21:00:00,44.6,41.6,30.28,NE,41,0.0,0.0,89,0.00,,,0.00,Wunderground v.1.15,2013-01-29 02:00:00,
2013-01-28 21:05:00,44.5,41.2,30.28,NE,41,0.0,0.0,88,0.00,,,0.00,Wunderground v.1.15,2013-01-29 02:05:00,
2013-01-28 21:10:00,44.3,41.0,30.29,NE,41,0.0,0.0,88,0.00,,,0.00,Wunderground v.1.15,2013-01-29 02:10:00,
2013-01-28 21:15:00,44.0,40.7,30.28,NE,41,0.0,0.0,88,0.00,,,0.00,Wunderground v.1.15,2013-01-29 02:15:00,
2013-01-28 21:20:00,43.8,40.8,30.28,NE,41,0.0,0.0,89,0.00,,,0.00,Wunderground v.1.15,2013-01-29 02:20:00,
2013-01-28 21:25:00,43.5,40.5,30.28,NE,41,0.0,0.0,89,0.00,,,0.00,Wunderground v.1.15,2013-01-29 02:25:00,
2013-01-28 21:30:00,43.3,40.3,30.28,NE,41,0.0,0.0,89,0.00,,,0.00,Wunderground v.1.15,2013-01-29 02:30:00,
2013-01-28 21:35:00,43.1,40.1,30.28,NE,41,0.0,0.0,89,0.00,,,0.00,Wunderground v.1.15,2013-01-29 02:35:00,
2013-01-28 21:40:00,42.9,40.2,30.28,NE,41,0.0,0.0,90,0.00,,,0.00,Wunderground v.1.15,2013-01-29 02:40:00,
2013-01-28 21:45:00,42.8,40.1,30.28,NE,41,0.0,0.0,90,0.00,,,0.00,Wunderground v.1.15,2013-01-29 02:45:00,
2013-01-28 21:50:00,42.7,40.0,30.28,NE,41,0.0,0.0,90,0.00,,,0.00,Wunderground v.1.15,2013-01-29 02:50:00,
2013-01-28 21:55:00,42.5,39.8,30.27,NE,41,0.0,0.0,90,0.00,,,0.00,Wunderground v.1.15,2013-01-29 02:55:00,
2013-01-28 22:00:00,42.4,39.7,30.28,NE,41,0.0,0.0,90,0.00,,,0.00,Wunderground v.1.15,2013-01-29 03:00:00,
2013-01-28 22:05:00,42.3,39.6,30.28,NE,41,0.0,0.0,90,0.00,,,0.00,Wunderground v.1.15,2013-01-29 03:05:00,
2013-01-28 22:10:00,42.2,39.5,30.27,NE,41,0.0,0.0,90,0.00,,,0.00,Wunderground v.1.15,2013-01-29 03:10:00,
2013-01-28 22:15:00,42.1,39.7,30.27,NE,41,0.0,0.0,91,0.00,,,0.00,Wunderground v.1.15,2013-01-29 03:15:00,
2013-01-28 22:20:00,41.9,39.2,30.27,NE,41,0.0,0.0,90,0.00,,,0.00,Wunderground v.1.15,2013-01-29 03:20:00,
2013-01-28 22:25:00,41.8,39.1,30.27,NE,41,0.0,0.0,90,0.00,,,0.00,Wunderground v.1.15,2013-01-29 03:25:00,
2013-01-28 22:30:00,41.7,39.0,30.28,NE,41,0.0,0.0,90,0.00,,,0.00,Wunderground v.1.15,2013-01-29 03:30:00,
2013-01-28 22:35:00,41.6,38.9,30.28,NE,41,0.0,0.0,90,0.00,,,0.00,Wunderground v.1.15,2013-01-29 03:35:00,
2013-01-28 22:40:00,41.4,38.7,30.27,NE,41,0.0,0.0,90,0.00,,,0.00,Wunderground v.1.15,2013-01-29 03:40:00,
2013-01-28 22:45:00,41.3,38.9,30.27,NE,41,0.0,0.0,91,0.00,,,0.00,Wunderground v.1.15,2013-01-29 03:45:00,
2013-01-28 22:50:00,41.2,38.8,30.27,NE,41,0.0,0.0,91,0.00,,,0.00,Wunderground v.1.15,2013-01-29 03:50:00,
2013-01-28 22:55:00,40.9,38.2,30.27,NE,41,0.0,0.0,90,0.00,,,0.00,Wunderground v.1.15,2013-01-29 03:55:00,
2013-01-28 23:00:00,40.7,38.3,30.27,NE,41,0.0,0.0,91,0.00,,,0.00,Wunderground v.1.15,2013-01-29 04:00:00,
2013-01-28 23:05:00,40.6,38.2,30.27,NE,41,0.0,0.0,91,0.00,,,0.00,Wunderground v.1.15,2013-01-29 04:05:00,
2013-01-28 23:10:00,40.6,38.2,30.27,NE,41,0.0,0.0,91,0.00,,,0.00,Wunderground v.1.15,2013-01-29 04:10:00,
2013-01-28 23:15:00,40.6,38.2,30.27,NE,41,0.0,0.0,91,0.00,,,0.00,Wunderground v.1.15,2013-01-29 04:15:00,
2013-01-28 23:20:00,40.6,38.2,30.27,NE,41,0.0,0.0,91,0.00,,,0.00,Wunderground v.1.15,2013-01-29 04:20:00,
2013-01-28 23:25:00,40.5,38.1,30.27,NE,41,0.0,0.0,91,0.00,,,0.00,Wunderground v.1.15,2013-01-29 04:25:00,
2013-01-28 23:30:00,40.5,38.1,30.27,NE,41,0.0,0.0,91,0.00,,,0.00,Wunderground v.1.15,2013-01-29 04:30:00,
2013-01-28 23:35:00,40.4,37.7,30.27,NE,41,0.0,0.0,90,0.00,,,0.00,Wunderground v.1.15,2013-01-29 04:35:00,
2013-01-28 23:40:00,40.3,37.9,30.27,NE,41,0.0,0.0,91,0.00,,,0.00,Wunderground v.1.15,2013-01-29 04:40:00,
2013-01-28 23:45:00,40.4,38.3,30.27,NE,41,0.0,0.0,92,0.00,,,0.00,Wunderground v.1.15,2013-01-29 04:45:00,
2013-01-28 23:48:00,35.9,27.4,29.92,NW,318,2.0,4.0,71,0.00,,,0.05,Wunderground v.1.15,2013-01-29 04:48:00,
2013-01-28 23:49:00,35.9,27.4,29.92,NW,318,4.0,4.0,71,0.00,,,0.05,Wunderground v.1.15,2013-01-29 04:49:00,
2013-01-28 23:50:00,40.5,38.4,30.27,NE,41,0.0,0.0,92,0.00,,,0.00,Wunderground v.1.15,2013-01-29 04:50:00,
2013-01-28 23:51:00,35.9,27.4,29.92,NW,318,1.0,1.0,71,0.00,,,0.05,Wunderground v.1.15,2013-01-29 04:51:00,
2013-01-28 23:52:00,35.9,27.4,29.92,NW,318,2.0,6.0,71,0.00,,,0.05,Wunderground v.1.15,2013-01-29 04:52:00,
2013-01-28 23:53:00,35.9,27.1,29.92,NW,318,0.0,6.0,70,0.00,,,0.05,Wunderground v.1.15,2013-01-29 04:53:00,
2013-01-28 23:54:00,35.9,27.4,29.92,NW,318,0.0,6.0,71,0.00,,,0.00,Wunderground v.1.15,2013-01-29 04:54:00,
2013-01-28 23:55:00,35.9,27.4,29.92,NW,318,2.0,6.0,71,0.00,,,0.00,Wunderground v.1.15,2013-01-29 04:55:00,
2013-01-28 23:56:00,40.6,38.5,30.27,NE,41,0.0,0.0,92,0.00,,,0.00,Wunderground v.1.15,2013-01-29 04:56:00,
2013-01-28 23:57:00,35.9,27.4,29.91,NW,318,0.0,6.0,71,0.00,,,0.00,Wunderground v.1.15,2013-01-29 04:57:00,
2013-01-28 23:58:00,35.9,27.4,29.91,NW,318,0.0,6.0,71,0.00,,,0.00,Wunderground v.1.15,2013-01-29 04:58:00,
2013-01-28 23:59:00,35.9,27.4,29.92,NW,318,1.0,6.0,71,0.00,,,0.00,Wunderground v.1.15,2013-01-29 04:59:00,